Theta_e
295 295 295 294 294 293 292 292 292 291 291 291 291 290 290 290 290 289 289 289 288 288 287 286 286 285 284 283 282 281 280 279 279 278 278 278 278 278 278 277 277 277 277 276 276 276 276 276 276 276 275 275 275 275 275 275 274 274 274 274 274 275
295 295 294 293 293 293 292 291 291 290 291 290 290 290 290 289 289 289 288 288 288 287 286 286 285 284 283 282 281 280 279 279 278 278 277 277 278 277 277 277 276 276 276 276 276 275 275 275 274 274 274 274 274 274 274 274 274 273 273 273 274 274
294 293 293 292 290 290 291 290 290 290 290 290 290 289 289 289 289 288 288 288 287 286 285 285 283 282 282 280 280 279 279 278 278 278 277 277 277 277 277 276 276 276 276 275 275 275 274 274 274 274 274 273 273 273 273 273 273 272 272 273 272 273
295 293 289 288 289 289 289 290 289 288 289 289 289 289 288 288 288 288 287 287 287 285 285 284 282 281 280 279 279 278 278 278 277 277 277 277 277 277 276 276 276 275 275 274 274 274 273 274 273 273 273 273 272 272 273 272 272 272 272 272 271 272
296 294 292 291 290 290 289 288 289 289 288 288 288 288 288 288 288 288 287 286 285 285 284 282 281 280 279 279 278 277 277 277 277 277 276 276 276 276 276 275 275 275 274 274 274 273 273 273 272 272 272 272 272 272 272 272 271 271 271 271 271 271
292 291 289 290 289 288 288 289 289 288 288 288 288 287 287 287 287 287 286 285 284 283 282 281 280 279 278 278 277 277 276 276 276 277 276 276 275 275 275 275 274 274 273 273 272 272 272 272 272 272 272 272 271 271 271 271 271 271 271 271 271 271
290 291 291 290 289 289 288 288 288 287 287 287 287 288 287 287 286 286 285 284 283 282 281 280 279 278 278 277 277 276 276 276 276 276 275 275 274 274 274 274 273 273 272 272 272 271 271 271 271 271 271 271 271 271 271 271 271 271 271 271 271 272
291 289 288 288 287 288 288 287 287 287 287 287 287 287 286 286 285 285 284 283 282 281 280 279 278 278 277 276 276 276 276 276 275 275 275 274 274 274 273 273 272 272 272 271 271 271 271 271 271 271 271 271 271 271 271 271 271 271 271 271 271 271
288 288 288 288 288 287 287 286 286 286 286 286 286 286 286 285 285 284 283 282 282 280 280 279 278 277 277 276 276 276 275 275 275 274 274 274 274 273 272 272 271 272 271 271 271 270 270 270 270 270 270 270 270 270 270 270 270 271 271 271 271 271
290 288 287 287 287 287 285 285 286 286 286 286 286 285 285 285 284 283 282 281 281 280 279 278 277 277 276 276 275 275 275 274 274 274 274 274 273 272 272 271 271 270 270 270 270 271 270 270 270 270 270 270 270 270 270 270 270 270 270 271 272 272
290 289 288 288 287 286 285 285 284 284 284 284 285 285 285 284 283 282 281 281 280 279 279 277 277 276 276 275 275 275 274 274 274 274 274 273 272 272 271 271 271 270 270 270 270 270 270 270 270 270 270 270 270 270 270 270 270 271 272 273 273 274
291 290 289 288 287 286 285 284 283 284 284 284 284 284 284 283 282 282 281 280 280 279 277 276 276 275 275 275 274 274 274 273 273 273 272 272 271 271 270 270 270 270 270 269 270 270 271 271 271 272 275 275 272 271 271 272 273 273 273 273 273 274
291 291 290 289 288 287 286 285 284 284 283 283 283 283 282 282 282 281 280 280 279 278 276 276 275 275 274 274 274 273 273 273 272 271 271 270 270 270 270 270 269 269 270 270 270 270 271 271 271 274 276 276 277 275 274 274 274 274 274 274 274 274
290 290 290 291 290 289 287 285 284 283 283 283 283 282 281 281 281 280 279 279 278 276 276 275 274 274 274 273 273 273 272 272 271 270 270 269 269 269 269 269 269 269 270 270 270 270 270 271 273 275 276 276 277 277 275 275 274 274 274 274 274 274
290 291 291 291 291 290 288 286 284 283 283 283 283 281 280 280 279 279 278 277 276 276 275 274 274 273 273 273 272 272 271 270 270 269 269 268 269 269 268 269 269 269 270 270 270 270 270 270 273 274 275 276 277 277 277 275 275 275 275 274 274 274
291 291 291 291 292 291 289 286 285 285 284 283 281 279 279 279 278 278 277 276 276 275 274 273 273 273 272 271 271 270 269 269 269 268 268 268 268 268 268 269 269 269 269 270 269 269 269 270 271 274 275 275 276 277 277 275 275 275 274 273 273 273
290 291 289 289 290 288 286 284 284 282 281 280 279 279 278 278 277 277 276 275 275 274 274 273 273 272 271 270 269 269 268 268 268 268 268 268 268 268 268 268 268 269 269 269 269 268 268 268 271 273 275 275 276 277 277 275 274 273 273 273 273 273
291 291 291 289 288 286 285 285 283 282 281 279 279 278 278 277 277 276 275 275 274 274 273 273 272 271 270 269 268 268 267 267 267 267 268 268 268 268 268 268 269 268 268 268 268 267 267 267 271 273 274 275 276 277 275 273 273 272 272 273 273 273
291 291 289 286 286 285 284 283 282 281 278 278 277 277 277 277 276 276 275 274 274 273 273 273 271 270 269 268 268 267 267 267 267 267 268 267 268 268 267 267 268 268 267 267 267 266 266 267 269 271 273 274 276 275 273 273 272 272 272 272 273 273
290 289 288 286 285 285 284 282 281 280 278 277 276 276 276 276 276 275 275 274 273 273 272 272 271 269 268 267 267 267 267 267 267 267 268 267 267 267 267 267 267 267 267 266 266 266 266 266 268 271 273 274 275 275 273 272 272 271 272 272 273 273
290 287 285 284 284 282 281 281 280 279 278 277 276 276 275 275 275 275 274 274 273 272 272 271 270 269 268 267 267 267 267 267 267 267 267 267 267 267 267 266 266 266 266 266 266 268 267 267 268 271 272 274 275 274 273 272 271 271 271 271 272 273
286 284 284 284 283 280 280 279 279 278 277 276 275 275 275 275 276 275 274 273 272 272 272 271 269 268 268 267 267 267 267 267 266 266 266 266 266 265 266 265 265 265 265 266 266 266 267 267 267 268 272 274 274 275 273 272 271 270 271 272 272 272
287 287 285 283 280 279 279 279 278 277 276 275 275 275 276 276 275 274 274 272 271 270 270 269 269 268 267 267 267 267 266 266 266 265 265 264 265 265 265 265 264 264 264 265 266 267 267 268 267 268 272 273 274 275 274 272 272 272 272 272 272 272
285 284 282 281 281 280 279 279 278 277 276 275 275 276 276 275 274 273 272 271 270 269 268 268 268 268 267 266 266 265 265 265 265 265 264 264 264 264 264 264 263 263 264 266 267 267 267 269 270 268 271 272 273 274 275 273 273 274 273 272 271 271
285 285 285 281 280 280 279 279 278 277 276 275 277 277 276 274 273 272 270 269 268 267 267 267 266 265 265 265 265 265 264 264 263 263 263 264 263 263 262 262 263 264 264 266 266 268 268 268 268 270 269 272 273 274 275 275 275 276 274 272 270 270
285 285 281 279 279 279 280 280 279 278 276 277 277 275 273 272 272 270 269 268 267 266 265 265 264 264 264 264 264 264 263 262 262 262 262 263 262 262 262 263 264 264 264 265 266 267 267 268 267 269 270 270 273 274 275 275 276 276 273 273 271 270
286 282 278 277 277 278 279 280 281 279 278 278 274 274 272 271 269 268 267 266 265 264 264 263 263 263 263 264 264 263 262 261 261 261 262 262 263 263 263 264 265 264 264 265 265 265 266 265 266 266 269 271 272 273 274 274 275 275 275 271 271 270
283 281 281 277 276 277 278 279 281 279 280 275 273 272 271 269 268 266 265 264 263 263 262 262 262 262 263 263 264 263 263 261 262 262 262 262 263 264 264 264 264 264 264 264 264 264 264 264 265 266 268 269 270 272 273 274 274 273 274 273 270 272
283 283 282 280 276 276 277 277 279 280 275 272 272 271 269 268 267 265 264 263 262 262 262 262 261 261 262 262 263 263 263 262 263 263 262 262 263 263 263 264 264 264 264 263 264 264 264 262 264 266 267 268 269 271 271 271 271 272 272 270 269 271
281 282 281 282 280 275 275 276 277 276 273 271 270 269 267 267 266 264 263 262 262 261 262 261 261 261 261 262 262 262 262 263 264 263 263 263 263 263 263 263 264 264 264 263 264 264 264 263 263 265 266 267 270 271 271 271 271 270 269 268 269 269
280 281 281 281 280 275 274 274 275 272 270 270 268 268 267 266 265 264 262 262 261 261 262 261 261 261 261 261 262 263 263 263 264 263 264 265 265 265 264 264 264 265 265 264 264 263 263 264 264 265 270 271 272 271 270 270 270 270 269 270 272 267
281 280 280 281 278 274 274 273 273 271 270 268 268 267 267 265 264 263 262 261 261 261 261 261 261 261 261 261 262 262 262 265 267 266 264 265 268 270 270 269 265 266 265 265 266 266 264 264 266 270 272 272 272 272 273 272 272 272 271 272 271 267
280 280 280 280 277 274 274 273 272 269 269 268 268 268 267 265 263 262 262 261 261 261 261 261 261 261 261 262 262 262 262 263 266 269 269 269 270 271 271 271 271 271 270 267 265 268 270 270 271 271 271 271 271 272 272 272 271 271 271 271 266 260
280 279 280 282 278 275 273 272 271 269 268 267 267 268 267 265 264 263 262 262 262 262 262 262 261 261 261 262 262 262 262 263 264 265 269 271 271 272 272 272 272 271 271 271 268 267 266 269 271 271 271 271 271 271 271 271 270 270 270 269 267 258
286 284 283 282 279 274 272 271 270 268 267 267 267 267 266 265 264 264 263 262 262 262 262 262 262 261 261 261 261 261 263 263 263 264 265 268 271 272 272 271 271 271 271 271 271 270 269 269 270 270 270 270 270 270 270 270 269 269 269 267 259 255
287 286 284 282 278 274 272 271 270 268 267 266 267 267 267 265 265 265 263 262 262 262 262 262 262 262 262 262 262 262 263 263 264 264 264 263 265 267 269 270 270 270 271 270 270 270 270 270 270 270 270 269 269 269 269 267 263 267 267 264 256 255
286 286 283 280 276 273 272 272 271 268 266 266 266 266 266 265 266 265 264 263 262 262 262 262 262 262 262 263 263 263 263 263 264 264 263 263 263 263 262 261 262 266 268 266 267 269 269 269 269 269 269 269 268 268 266 263 256 256 256 256 255 256
286 285 282 277 274 272 271 271 270 267 266 265 266 266 265 265 265 265 264 263 263 262 263 263 262 263 263 263 263 264 263 263 263 263 262 262 262 262 260 258 257 256 264 268 266 267 268 268 269 268 268 267 267 265 263 253 253 252 253 254 254 254
Wind_Speed
12 13 15 14 14 13 13 13 12 11 12 14 15 19 20 18 15 14 12 14 12 13 15 15 13 11 11 10 11 10 11 11 10 9 9 8 8 8 7 7 6 5 5 5 4 4 4 4 4 3 3 3 4 4 5 4 4 5 7 6 5 6
13 15 14 14 15 15 13 13 11 13 14 13 13 12 10 11 14 15 15 15 13 12 11 12 12 12 12 11 12 12 12 11 11 10 9 9 8 7 7 7 6 6 6 5 5 4 4 4 3 3 3 3 4 4 5 5 5 6 7 6 5 5
11 10 10 10 7 6 7 10 14 14 11 12 13 15 16 16 16 14 15 13 14 14 16 15 13 13 11 11 11 11 11 10 10 9 8 8 8 8 8 7 7 6 6 5 4 4 4 3 3 3 3 3 4 5 5 5 5 7 7 6 7 6
11 9 6 5 6 7 10 11 10 10 14 15 14 12 13 15 14 15 15 14 14 15 15 14 12 12 11 12 12 11 11 10 10 10 9 9 8 8 7 7 6 5 5 4 4 4 3 3 3 3 3 4 5 6 5 6 6 7 8 6 8 7
13 13 13 11 13 13 11 10 12 14 14 12 12 14 15 15 15 13 12 13 13 14 13 12 12 12 13 13 11 11 11 10 10 9 10 9 8 7 7 6 6 5 5 4 4 4 4 4 3 3 3 5 6 7 6 6 6 7 8 8 9 8
7 6 8 12 11 11 13 14 13 12 11 13 12 14 16 14 12 13 13 12 12 11 12 13 12 13 13 13 11 12 11 10 10 9 10 9 7 8 6 6 6 6 5 5 4 4 4 4 4 4 5 6 7 7 7 7 8 8 8 9 9 9
8 10 12 12 13 11 11 11 12 11 12 10 13 15 13 12 9 10 11 11 13 13 14 13 13 14 14 13 11 13 12 11 11 9 10 10 9 8 8 7 6 6 5 6 5 5 4 4 4 5 6 6 6 7 7 8 8 8 9 9 9 9
9 7 8 8 8 10 11 13 13 12 11 13 13 10 9 11 9 10 10 11 14 14 15 14 14 15 15 14 13 13 12 12 11 11 10 11 11 9 8 8 6 6 6 5 5 4 4 4 4 4 5 6 6 7 7 8 8 9 9 9 9 10
7 10 10 11 11 11 11 11 11 11 11 11 10 10 11 11 11 11 12 12 13 13 15 15 15 14 14 14 13 12 12 12 12 12 12 11 10 10 9 8 7 6 6 5 4 4 4 4 4 5 6 7 7 8 8 8 8 9 8 8 9 9
9 10 11 11 11 10 9 10 11 12 13 13 11 11 11 10 13 13 13 13 13 14 15 14 13 13 13 12 12 13 12 12 11 10 9 10 10 9 9 8 7 5 4 4 4 4 3 4 4 5 7 7 7 7 7 7 7 7 8 9 10 10
10 12 12 13 12 11 12 11 9 8 7 7 10 11 13 12 13 13 13 13 14 15 14 12 12 11 12 13 13 13 13 12 11 10 10 9 8 6 7 6 6 6 5 4 5 4 4 5 6 6 7 7 7 6 6 6 7 9 10 11 12 12
12 12 12 12 11 12 11 10 10 11 12 12 12 12 10 12 13 14 15 16 15 13 13 13 12 13 13 13 13 12 12 11 11 10 10 9 8 7 7 6 5 6 5 5 5 5 6 6 6 9 16 13 7 6 6 7 8 10 11 11 12 12
13 12 11 12 12 14 14 13 13 11 10 10 11 13 12 13 14 14 15 15 13 13 13 13 13 12 13 12 11 10 12 12 10 10 10 9 9 9 8 7 6 5 6 7 6 7 6 6 6 13 14 14 15 9 7 9 10 10 11 11 12 12
12 12 13 13 14 14 12 11 11 11 13 12 13 12 12 13 13 14 13 12 12 13 14 13 13 13 13 12 12 12 11 11 11 11 10 10 9 8 7 6 7 7 6 6 7 7 6 5 9 14 14 14 14 13 9 9 9 9 10 11 11 11
12 12 13 13 14 13 13 14 12 14 13 13 13 11 12 13 13 13 13 12 12 13 12 11 12 11 11 11 11 11 11 11 11 11 12 12 7 6 7 8 7 7 7 6 6 6 5 6 10 13 14 13 13 13 12 9 9 9 10 10 11 12
9 11 12 13 14 14 13 13 16 15 13 12 11 13 13 13 11 11 11 11 12 12 12 12 12 12 11 10 10 10 11 11 11 8 6 7 8 7 7 7 7 6 7 6 5 5 6 7 9 13 12 12 13 12 12 8 9 9 10 11 11 11
10 11 9 9 11 9 7 9 9 7 10 11 13 12 13 12 12 12 13 14 13 13 13 14 13 13 12 12 12 12 12 12 10 9 8 8 8 9 8 8 7 6 5 4 4 3 5 6 11 12 12 11 11 12 11 7 8 9 10 10 11 12
11 11 11 8 7 8 10 12 10 12 12 11 14 12 13 13 13 14 13 14 14 15 15 15 15 14 13 13 13 12 10 9 9 11 9 8 7 6 6 5 6 6 5 5 4 4 6 7 12 11 11 10 10 12 7 6 8 8 10 10 11 12
8 10 7 5 8 9 10 9 11 12 12 12 12 13 12 13 14 15 16 15 15 16 16 16 16 15 15 15 13 10 10 11 10 8 7 8 8 8 7 6 5 5 5 5 5 6 7 6 9 10 9 9 10 9 5 6 6 8 10 11 12 12
6 5 6 6 7 9 8 10 12 13 12 13 12 13 13 14 16 15 15 16 16 16 16 16 16 17 16 15 15 11 10 8 7 8 7 8 9 8 7 6 5 4 4 5 6 7 6 6 8 10 8 8 9 9 5 5 6 7 9 11 11 10
5 6 5 6 8 5 7 10 12 12 12 11 13 12 13 15 14 15 17 16 15 14 14 14 15 16 16 15 14 11 11 10 9 8 7 6 6 7 6 6 5 5 4 5 6 10 8 6 7 9 7 8 9 8 4 5 6 7 8 9 11 11
4 4 6 7 6 7 9 9 9 9 10 10 11 13 14 16 15 11 9 11 13 13 13 13 14 14 15 15 15 8 7 7 8 8 8 6 5 6 6 5 5 5 4 5 6 6 7 6 5 5 8 8 9 11 7 5 6 8 9 10 10 11
7 8 8 6 7 8 8 9 10 10 10 12 12 15 17 12 10 12 12 12 12 12 13 12 14 16 13 14 16 9 8 6 8 8 7 8 7 6 6 6 4 3 4 5 6 6 6 5 5 6 7 8 9 11 10 5 7 8 9 8 9 9
4 4 4 6 10 11 11 11 11 10 10 11 16 18 9 11 12 12 13 14 14 13 13 13 13 13 15 16 14 11 9 7 7 7 7 6 7 8 6 5 4 4 5 5 5 5 5 5 4 1 5 8 9 10 13 8 7 9 9 10 9 11
5 7 6 5 7 9 11 13 13 12 12 14 19 11 11 11 12 13 13 14 15 14 15 14 16 15 15 17 11 11 11 9 8 7 7 8 7 7 7 6 6 6 5 4 4 5 3 2 1 4 3 7 9 11 12 13 11 16 10 9 10 11
5 6 4 5 5 7 9 14 13 12 13 20 6 9 8 10 12 14 15 15 15 14 14 16 17 18 17 16 11 9 11 10 8 7 6 6 7 7 6 6 6 6 5 5 4 2 2 1 2 3 6 6 9 11 11 12 14 16 10 10 9 11
9 6 4 6 7 7 9 9 14 13 17 8 11 12 13 13 13 14 15 15 15 15 14 16 17 17 17 16 16 13 10 10 9 9 7 7 7 7 7 8 7 6 6 5 4 2 2 2 2 2 6 8 9 9 10 12 14 14 16 10 7 10
4 5 7 6 7 8 8 9 9 14 15 9 11 12 14 15 16 15 16 15 15 16 16 16 11 10 9 11 6 6 9 12 10 9 9 7 8 8 8 8 7 6 6 5 4 4 3 2 2 3 4 7 9 9 9 13 13 14 15 14 12 18
7 8 8 9 6 8 8 9 10 8 4 10 11 12 14 15 16 15 15 17 16 16 15 13 12 10 8 8 7 7 7 7 8 9 9 9 9 9 8 8 8 7 6 6 5 5 4 3 3 3 4 5 5 4 4 6 5 10 11 8 9 10
8 9 8 10 10 9 9 9 10 6 7 8 11 13 14 15 16 17 18 18 17 12 10 10 15 15 10 9 9 10 8 6 8 11 12 12 12 11 10 9 9 9 8 7 6 5 4 4 3 4 5 6 3 2 3 4 4 3 2 6 6 5
9 10 9 12 7 8 9 10 9 7 10 11 12 15 16 15 15 14 16 15 13 11 9 8 10 10 11 11 7 3 5 9 12 10 8 6 6 9 11 10 9 8 7 7 6 6 4 4 4 6 8 4 6 5 4 4 4 3 3 7 13 8
9 10 11 13 8 9 11 11 10 9 10 12 14 16 17 16 15 15 16 15 13 8 10 9 9 9 9 10 12 13 8 5 10 8 8 9 12 14 12 11 8 8 7 7 5 6 5 5 5 8 4 5 6 7 9 10 10 10 8 11 14 9
9 10 11 12 7 10 12 11 11 11 12 14 15 18 18 18 16 15 15 15 13 13 11 9 9 9 7 7 10 10 10 10 9 12 13 12 15 15 16 14 15 17 14 9 5 6 9 6 5 2 2 3 5 7 9 10 10 10 11 12 8 6
8 11 15 13 10 12 11 11 11 13 13 14 15 16 17 19 18 18 17 17 12 13 10 9 11 11 10 8 7 7 9 10 12 10 13 16 15 15 15 15 15 15 14 14 11 7 3 5 4 1 3 3 5 7 8 9 9 9 11 11 10 3
12 12 12 11 10 10 10 12 13 12 13 15 16 18 18 20 20 19 17 17 12 8 12 9 10 10 10 14 14 13 12 11 12 13 13 11 15 15 14 14 14 14 14 14 12 11 7 6 4 4 4 4 5 7 8 9 8 9 11 10 6 4
11 11 11 10 10 12 11 13 13 14 16 17 17 19 21 22 22 22 19 18 15 13 12 10 10 11 9 13 14 14 12 12 14 17 16 14 11 10 10 11 12 13 14 13 11 8 7 6 5 5 5 5 6 7 8 7 5 6 10 9 4 4
13 12 12 13 11 11 12 14 15 15 15 17 19 19 19 20 21 16 18 26 23 10 10 11 11 10 14 15 15 14 14 13 12 12 13 13 15 15 11 9 6 8 11 7 6 7 7 6 5 6 5 5 6 7 6 6 5 5 6 7 4 5
15 14 12 10 9 11 13 16 14 13 16 17 19 20 19 19 19 17 15 17 19 14 9 8 9 14 14 17 14 13 13 12 13 12 10 9 10 11 10 7 5 2 3 11 7 7 6 5 6 6 7 7 8 9 7 4 4 4 4 5 5 5
Wind_Direction
200 200 199 201 201 197 196 197 189 191 196 197 193 196 199 196 191 189 187 188 189 187 186 182 178 174 169 163 156 153 154 155 153 153 151 142 145 143 143 148 154 160 178 183 194 193 202 204 208 207 212 214 233 243 250 250 247 251 256 250 253 260
203 200 199 197 197 195 194 187 185 195 198 188 197 201 195 192 195 190 189 190 184 184 178 181 176 171 166 163 159 159 159 157 153 151 151 157 148 150 148 156 162 172 185 187 186 197 198 205 210 203 214 221 232 239 247 251 248 254 256 260 254 262
209 214 212 211 204 190 181 183 190 194 188 195 194 194 194 195 198 189 193 182 186 178 181 178 171 169 161 157 158 156 157 154 152 154 152 142 155 151 155 163 169 174 178 180 186 191 202 206 218 203 206 219 237 239 242 247 248 254 257 261 263 258
217 211 192 185 186 195 192 194 180 182 194 199 191 190 195 199 195 195 190 185 183 182 178 173 166 161 159 158 157 156 157 156 154 151 147 153 156 153 159 165 165 170 174 178 192 197 205 215 214 217 213 240 246 250 242 246 248 250 257 255 260 258
204 199 192 193 196 198 194 185 190 195 196 190 190 191 201 199 197 192 186 183 180 180 172 163 164 162 162 160 160 158 157 155 151 150 150 152 154 152 157 160 162 168 169 176 188 198 209 212 219 215 221 235 240 245 246 246 247 252 257 258 260 261
214 177 183 196 199 197 197 198 197 193 189 193 190 196 199 195 191 189 185 180 176 168 162 167 162 162 165 165 165 159 157 154 152 149 148 147 146 150 154 156 163 162 172 182 193 203 208 213 217 221 226 233 238 242 247 246 248 251 253 256 259 260
186 196 201 202 204 204 201 199 198 190 192 190 194 201 194 190 186 181 183 176 169 167 168 168 166 168 169 166 163 160 156 155 151 151 149 145 149 154 153 161 162 166 173 187 197 209 213 215 217 225 230 235 234 239 243 246 247 249 251 254 256 258
210 204 203 206 212 211 205 200 197 195 188 195 197 190 180 185 175 180 175 176 173 173 172 171 170 173 172 166 163 161 158 155 155 153 153 154 154 156 160 160 162 170 183 185 200 204 214 214 219 228 235 239 242 242 243 246 248 249 253 253 253 253
208 212 210 208 205 201 206 206 203 196 192 193 190 186 179 177 174 175 176 178 179 174 176 175 177 173 170 167 163 159 159 161 159 156 157 157 156 156 159 163 162 169 172 188 189 206 208 221 226 232 240 242 244 242 245 249 249 251 251 254 256 257
218 214 213 211 216 212 210 209 204 196 192 191 184 177 176 176 175 176 177 176 180 181 180 178 173 171 170 164 160 161 160 157 155 151 147 146 154 158 161 160 161 162 162 182 196 210 208 221 232 236 239 241 240 243 245 247 253 258 261 259 257 257
224 220 217 218 213 208 208 207 204 195 195 186 178 179 184 176 173 175 176 178 182 185 179 170 169 167 165 164 160 159 159 154 151 147 145 144 144 140 144 144 145 159 170 185 196 208 217 221 230 231 236 238 243 239 244 250 258 258 263 268 269 269
227 222 219 219 213 212 208 204 198 195 191 188 182 181 178 165 177 177 180 184 186 178 171 169 168 168 165 162 162 157 151 147 145 142 140 139 138 135 140 145 149 162 178 189 208 210 220 228 226 236 243 244 234 226 235 243 253 265 269 272 275 272
230 227 220 220 216 213 208 204 200 194 188 183 180 179 178 174 177 183 183 186 178 171 168 168 168 161 164 160 152 150 148 146 144 141 139 139 142 144 146 148 155 170 189 201 209 218 223 228 228 243 250 254 261 262 262 270 270 266 267 271 274 277
230 228 225 223 221 216 210 202 194 182 191 183 181 179 171 176 180 182 183 177 169 169 168 166 160 162 162 158 158 155 150 144 143 144 143 141 142 145 143 151 171 180 192 202 211 218 224 230 244 250 254 261 266 272 271 269 271 272 275 277 278 283
226 224 224 222 222 218 211 197 183 192 189 180 183 161 170 177 178 178 176 173 169 167 164 159 159 160 159 160 152 149 143 144 138 136 133 135 130 139 154 168 173 184 193 204 208 220 229 242 249 255 261 266 271 275 279 277 277 279 278 286 289 289
232 231 223 217 217 215 207 184 189 195 182 171 156 165 173 172 174 170 169 164 166 163 161 159 160 161 159 152 148 146 145 143 133 124 123 129 144 156 160 166 174 181 190 197 204 221 242 249 252 261 266 270 276 281 285 282 285 288 290 289 290 288
228 234 231 223 218 211 177 187 187 152 148 157 163 167 166 171 166 170 170 169 167 161 162 162 162 160 157 153 151 149 148 145 122 136 146 154 157 157 160 166 170 180 179 192 201 216 246 250 258 264 270 278 285 289 294 296 296 290 289 288 286 289
233 226 227 216 195 188 179 183 166 157 165 158 163 164 167 167 170 173 171 170 168 166 166 163 163 160 156 153 153 152 145 146 147 151 151 146 142 142 147 155 161 173 176 174 180 215 243 252 259 269 276 282 291 297 303 298 292 293 293 291 290 290
229 232 219 189 184 175 186 163 157 155 150 158 163 164 167 168 176 180 176 172 170 170 168 166 162 159 159 159 155 146 147 150 147 144 142 141 147 152 157 156 160 163 165 180 192 216 238 247 260 269 277 287 295 303 285 293 294 293 293 293 293 292
226 225 189 189 190 188 164 158 156 155 157 163 162 165 173 175 186 180 176 177 174 170 167 167 163 161 162 162 163 152 147 137 126 140 146 144 147 151 155 153 146 160 171 190 204 213 229 241 257 269 285 295 296 300 299 293 279 277 290 294 293 292
223 189 173 165 190 183 156 153 152 152 164 164 167 169 174 189 184 180 182 177 169 166 165 165 164 162 162 165 151 128 141 146 144 140 130 129 128 134 140 142 150 164 182 200 208 222 230 230 250 274 292 293 296 302 289 281 280 283 286 292 293 296
124 143 171 194 189 145 148 149 152 158 157 166 162 175 190 195 190 175 161 158 161 161 163 163 162 162 161 156 135 127 120 123 123 136 135 129 127 133 139 151 163 171 182 202 212 226 229 231 233 255 280 290 296 300 296 281 287 288 288 293 295 301
175 188 194 179 153 151 152 149 152 165 168 166 175 195 201 180 155 159 159 154 155 158 159 158 162 158 155 150 138 121 116 126 130 125 130 134 136 137 142 153 154 162 196 214 219 213 222 211 228 246 277 293 297 300 304 290 289 290 292 297 306 308
172 175 165 166 156 158 157 158 163 168 169 175 198 206 164 156 160 153 153 155 156 156 155 154 154 155 141 126 133 132 127 127 128 135 133 128 133 141 135 144 153 185 206 211 211 214 214 234 243 265 291 294 300 302 307 304 295 307 311 312 306 309
204 214 201 168 165 163 168 164 170 175 179 191 210 176 159 157 151 150 151 152 154 156 155 154 150 145 142 134 138 133 134 134 126 124 129 133 129 133 142 157 180 190 198 202 213 205 193 172 217 284 282 294 300 306 309 312 315 318 318 313 312 315
230 230 194 166 173 177 172 175 176 182 185 213 168 134 137 144 150 150 152 154 154 152 153 148 137 133 137 137 138 126 127 135 133 132 137 128 134 144 154 174 183 184 186 196 187 164 153 161 159 276 293 293 305 313 316 320 321 321 321 319 315 314
232 222 182 182 184 191 190 192 187 184 204 189 135 155 152 153 151 153 157 156 154 151 149 136 129 140 137 149 144 135 132 135 141 133 143 143 151 158 165 174 171 176 182 172 168 164 155 173 198 225 267 293 309 316 319 327 325 325 324 320 317 313
242 213 224 205 195 197 198 201 188 195 211 152 156 151 153 151 155 159 160 156 154 153 148 134 132 138 146 145 138 122 142 147 150 139 143 151 163 167 168 166 165 175 172 165 161 168 173 187 198 234 250 265 280 278 316 327 328 324 323 324 320 313
222 232 229 234 205 200 210 209 217 215 127 159 154 151 150 155 158 157 157 160 157 155 154 145 149 147 148 142 136 133 134 140 135 136 143 161 165 166 168 165 168 172 166 164 164 164 181 192 210 226 254 260 263 250 295 318 311 321 325 324 297 298
220 231 229 237 224 195 204 209 215 196 156 151 152 148 151 158 165 165 169 165 164 156 157 148 148 148 149 157 150 147 148 151 151 154 164 169 170 165 169 170 173 172 165 163 160 165 178 202 203 235 252 259 244 284 298 312 303 302 330 307 294 349
222 228 226 236 222 183 199 209 203 174 166 159 154 155 159 166 167 165 164 165 160 153 163 153 157 154 145 145 141 113 148 153 161 159 158 172 168 169 162 167 165 162 157 151 160 162 171 172 220 237 252 288 333 334 339 330 319 329 322 317 332 351
221 225 226 235 213 191 203 205 195 180 171 161 162 162 165 164 163 166 170 170 172 159 158 157 155 149 144 143 147 148 130 132 146 151 153 155 172 171 166 159 159 157 149 155 170 164 170 184 220 249 305 350 342 349 349 347 345 343 339 341 349 350
229 230 236 236 206 202 205 200 191 180 176 171 170 171 170 162 165 172 173 173 182 178 163 153 147 153 129 129 126 129 128 140 159 162 158 158 163 165 165 162 160 160 162 161 159 176 185 207 232 285 351 3 7 356 357 358 2 355 353 356 4 354
234 229 236 234 210 207 201 197 194 186 180 174 174 175 171 172 169 175 181 183 168 171 166 153 144 140 136 136 139 121 133 140 141 150 162 166 168 170 168 162 161 161 164 162 157 156 190 188 192 117 67 38 18 13 6 8 8 5 4 11 12 339
254 243 239 239 218 203 194 197 199 183 177 178 178 178 179 180 181 179 178 177 168 159 160 150 140 148 143 149 149 148 149 150 154 146 149 163 168 163 157 155 158 157 157 155 155 155 159 157 141 111 84 49 33 21 14 11 6 8 10 17 15 1
263 256 245 236 216 203 198 202 198 184 185 181 182 184 186 186 187 181 174 174 171 156 166 164 156 148 156 154 154 154 152 158 159 147 146 145 154 157 152 149 151 153 148 147 146 140 140 138 119 106 88 61 42 29 19 21 357 4 18 26 22 337
266 256 244 233 213 202 200 210 205 191 182 182 184 186 190 189 188 183 182 174 170 156 157 163 159 149 149 153 156 156 157 154 157 158 157 159 160 157 153 155 135 140 145 135 129 131 133 128 108 103 85 66 50 38 28 43 26 13 355 5 7 340
276 269 259 236 209 205 208 218 208 181 182 183 183 186 187 188 184 178 171 173 175 173 155 151 153 160 149 122 145 155 156 152 153 158 158 154 151 149 143 139 147 159 151 139 122 116 122 114 97 99 84 68 64 50 41 47 17 13 354 346 331 329